Flag for Poland Weather past 2 weeks in Gorzów Wielkopolski, Poland

Now
58 °F

Sprinkles. Overcast.


Feels Like: 56 °F
Forecast: 48 / 66 °F
Wind: 8 mph from East

Location: Gorzow Wlkp


UV Index: 0 (Low)

Visibility: 9 mi


Pressure: 29.89 "Hg

Humidity: 72%

Dew point: 49 °F

Location of Gorzów WielkopolskiLocation

Historic Weather in Gorzów Wielkopolski

°F

Gorzów Wielkopolski temperature yesterday

Maximum temperature yesterday: 72 °F (at 4:00 PM)
Minimum temperature yesterday: 38 °F (at 3:00 AM)
Average temperature yesterday: 56 °F

Past Weeks' High & Low Weather Summary

 TemperatureHumidityPressure
High72 °F (Apr 19, 4:00 PM)100% (Apr 11, 5:00 AM)30.43 "Hg (Apr 11, 5:00 AM)
Low33 °F (Apr 11, 4:00 AM)31% (Apr 17, 3:00 PM)29.63 "Hg (Apr 14, 1:00 PM)
Average50 °F73%30.01 "Hg
* Reported Apr 5 9:00 PM — Apr 20 9:00 PM, Gorzów Wielkopolski, Weather by CustomWeather, © 2014

Note: Actual official high and low records may vary slightly from our data, if they occured in-between our weather recording intervals... More about our weather records

Advertising

Historic Weather Conditions — Data for Previous 24 hours

 ConditionsComfort  
Time TempWeatherWind HumidityBarometerVisibility
9:00 PM
Apr 20
58 °FSprinkles. Overcast.8 mph72%29.89 "Hg9 mi
8:00 PM62 °FOvercast.2 mph54%29.87 "Hg16 mi
7:00 PM63 °FOvercast.2 mph53%29.87 "Hg25 mi
6:00 PM65 °FOvercast.3 mph52%29.88 "Hg25 mi
5:00 PM66 °FOvercast.5 mph48%29.89 "Hg22 mi
4:00 PM68 °FOvercast.3 mph44%29.90 "Hg19 mi
3:00 PM65 °FOvercast.5 mph49%29.93 "Hg19 mi
2:00 PM65 °FOvercast.5 mph49%29.93 "Hg19 mi
1:00 PM65 °FScattered clouds.5 mph53%29.95 "Hg19 mi
12:00 PM63 °FScattered clouds.5 mph62%29.97 "Hg16 mi
11:00 AM60 °FOvercast.5 mph68%29.97 "Hg16 mi
10:00 AM58 °FOvercast.3 mph73%29.97 "Hg12 mi
9:00 AM58 °FScattered clouds.5 mph73%29.98 "Hg11 mi
8:00 AM55 °FLight rain. Overcast.5 mph77%29.97 "Hg11 mi
7:00 AM54 °FOvercast.3 mph77%29.97 "Hg9 mi
6:00 AM52 °FPartly sunny.3 mph82%29.96 "Hg9 mi
5:00 AM53 °FPassing clouds.3 mph77%29.96 "Hg9 mi
4:00 AM56 °FPassing clouds.3 mph72%29.97 "Hg12 mi
3:00 AM57 °FPassing clouds.5 mph68%29.98 "Hg12 mi
2:00 AM59 °FPassing clouds.5 mph63%29.98 "Hg12 mi
1:00 AM59 °FPassing clouds.5 mph63%29.98 "Hg12 mi
12:00 AM60 °FPassing clouds.5 mph63%29.99 "Hg9 mi
11:00 PM
Apr 19
62 °FPassing clouds.5 mph63%29.99 "Hg9 mi
10:00 PM63 °FPassing clouds.5 mph60%29.99 "Hg9 mi
Weather by CustomWeather, © 2014

See weather overview